Location: Tamazert
(32.6352°N, 5.2072°W)
Time: 03:23:42
(UTC+00:00)

Tiros 1 despin weight - Pass Details

Date: 11 October 2022
Orbit: 590 x 637 km, 48.2° (Epoch: 30 November)

Event Time Altitude Azimuth Distance (km) Brightness Sun altitude
Rises 13:48:04 0° 271° (W) 2,814 ? 43.6°
Reaches altitude 10° 13:50:50 10° 288° (WNW) 1,919 ? 43.2°
Maximum altitude 13:54:07 20° 337° (NNW) 1,382 ? 42.8°
Drops below altitude 10° 13:57:27 10° 25° (NNE) 1,939 ? 42.4°
Sets 14:00:16 0° 43° (NE) 2,853 ? 42.0°
